TimeCST,TemperatureF,Dew PointF,Humidity,Sea Level PressureIn,VisibilityMPH,Wind Direction,Wind SpeedMPH,Gust SpeedMPH,PrecipitationIn,Events,Conditions,WindDirDegrees,DateUTC
12:53 AM,19.9,15.1,81,30.18,10.0,SSW,8.1,-,N/A,,Clear,200,2012-12-30 06:53:00
1:53 AM,25.0,15.1,66,30.15,10.0,SSW,13.8,-,N/A,,Clear,200,2012-12-30 07:53:00
2:53 AM,26.1,15.1,63,30.14,10.0,SSW,17.3,-,N/A,,Clear,210,2012-12-30 08:53:00
3:53 AM,24.1,15.1,69,30.15,10.0,SSW,15.0,-,N/A,,Clear,210,2012-12-30 09:53:00
4:53 AM,25.0,16.0,69,30.12,10.0,SSW,17.3,-,N/A,,Clear,200,2012-12-30 10:53:00
5:53 AM,26.1,16.0,66,30.13,10.0,SSW,18.4,-,N/A,,Clear,210,2012-12-30 11:53:00
6:53 AM,25.0,16.0,69,30.13,10.0,SSW,13.8,-,N/A,,Clear,200,2012-12-30 12:53:00
7:53 AM,24.1,15.1,69,30.17,10.0,SSW,11.5,-,N/A,,Clear,210,2012-12-30 13:53:00
8:53 AM,26.1,16.0,66,30.16,10.0,SSW,10.4,-,N/A,,Clear,210,2012-12-30 14:53:00
9:53 AM,33.1,18.0,54,30.14,10.0,SSW,17.3,-,N/A,,Clear,200,2012-12-30 15:53:00
10:53 AM,35.1,17.1,48,30.14,10.0,SSW,18.4,-,N/A,,Clear,200,2012-12-30 16:53:00
11:53 AM,37.0,17.1,44,30.12,10.0,SSW,19.6,-,N/A,,Scattered Clouds,200,2012-12-30 17:53:00
12:53 PM,39.0,18.0,43,30.07,10.0,SSW,20.7,-,N/A,,Clear,200,2012-12-30 18:53:00
1:53 PM,39.0,18.0,43,30.03,10.0,SSW,19.6,-,N/A,,Scattered Clouds,210,2012-12-30 19:53:00
2:53 PM,39.9,19.0,43,30.01,10.0,SSW,19.6,-,N/A,,Clear,210,2012-12-30 20:53:00
3:53 PM,39.9,19.0,43,29.98,10.0,South,18.4,-,N/A,,Clear,190,2012-12-30 21:53:00
4:53 PM,39.0,19.0,45,29.99,10.0,SSW,16.1,-,N/A,,Partly Cloudy,200,2012-12-30 22:53:00
5:53 PM,37.0,21.0,52,29.99,10.0,South,15.0,-,N/A,,Overcast,190,2012-12-30 23:53:00
6:53 PM,36.0,21.0,55,29.98,10.0,South,13.8,-,N/A,,Overcast,180,2012-12-31 00:53:00
7:53 PM,37.0,21.0,52,29.98,10.0,South,18.4,-,N/A,,Overcast,180,2012-12-31 01:53:00
8:53 PM,36.0,21.0,55,29.97,10.0,South,23.0,-,N/A,,Mostly Cloudy,190,2012-12-31 02:53:00
9:53 PM,36.0,21.9,57,29.97,10.0,SSW,17.3,-,N/A,,Overcast,200,2012-12-31 03:53:00
10:53 PM,36.0,21.9,57,29.94,10.0,SSW,15.0,-,N/A,,Overcast,200,2012-12-31 04:53:00
11:53 PM,35.1,25.0,67,29.96,10.0,SSW,20.7,-,N/A,,Overcast,200,2012-12-31 05:53:00